Location: Sweetwater (historical)
(38.4624°N, 119.1749°W)
Time: 12:42:21
(UTC+00:00)

Cosmos 1300 - Pass Details

Date: 13 August 2020
Orbit: 511 x 514 km, 82.5° (Epoch: 20 September)

Event Time Altitude Azimuth Distance (km) Brightness Sun altitude
Exits shadow 12:14:57 15° 230° (SW) 1,453 4.3 -10.7°
Maximum altitude 12:17:25 28° 283° (WNW) 991 3.7 -10.2°
Drops below altitude 10° 12:20:45 10° 343° (NNW) 1,747 5.5 -9.7°
Sets 12:23:07 0° 356° (N) 2,638 6.6 -9.2°
